Find Starlink 34764

NORAD ID: 65098 Int'l Des: 2025-167 Owner: SPXS Country: US Constellation: starlink operational
LEOCIRCULAR

リアルタイム位置

3D地球を読み込み中...

Starlink 34764について

説明を読み込み中...

次回通過

Passes for default location (London). Set your location on the main map for personalized predictions.

高度履歴

Loading altitude history...

軌道要素

1 65098U 25167W 26104.63533669 .00006543 00000-0 23286-3 0 9995
2 65098 53.1600 219.6639 0001072 94.6526 265.4597 15.30199569 38987
Epoch: Apr 14, 2026 • Age: 15 hours

現在のステータス

高度 494.3 km
速度 7.62 km/s
衛星直下点 -52.81°S, 164.26°W
打ち上げ日 Aug 4, 2025
運用期間 0.6 years
タイプ internet

技術仕様

分類 Payload
質量 575.00 kg
乾燥質量 530.00 kg
総質量 575.00 kg
長さ 0.30 m
直径 4.10 m
スパン 29.00 m
形状 Box + pan
製造者 SPXS
バスタイプ Starlink V2MO
フェーズステータス In Orbit
所有者/国 SPXS/US

Most Searched